Wind_Speed
14 17 19 20 19 19 12 9 7 7 8 6 6 7 9 9 8 9 21 20 30 28 22 20 8 5 4 3 1 3 1 4 5 6 8 18 19 31 19 20 23 25 25 26 25
14 16 18 20 19 18 12 8 7 6 8 6 5 8 10 10 7 7 24 26 29 25 19 12 8 9 3 2 1 2 2 5 5 7 15 25 23 28 13 20 24 25 29 27 21
13 15 18 20 19 17 13 8 7 6 8 8 6 7 12 11 4 21 31 32 17 16 13 12 8 5 3 2 1 2 4 2 18 20 18 18 24 22 14 9 17 26 29 19 15
11 14 16 18 19 17 12 7 7 6 7 10 7 5 11 14 4 29 34 18 14 12 13 12 10 4 3 4 2 3 9 10 13 25 15 14 19 16 18 17 28 26 23 21 18
11 13 15 17 17 16 14 8 7 6 6 9 8 5 10 10 13 33 21 13 10 11 14 12 15 6 3 4 7 3 4 17 20 23 13 12 17 12 30 38 32 16 8 15 16
11 13 14 16 16 15 14 8 9 6 5 8 6 3 8 7 23 34 15 8 8 9 12 13 9 9 4 4 1 10 15 17 12 14 11 9 14 24 35 32 30 28 9 7 8
10 12 14 15 16 15 14 7 7 7 3 8 5 3 5 10 22 32 15 9 9 4 8 10 9 14 13 5 10 7 7 9 2 19 4 14 17 23 33 29 31 31 28 9 11
10 11 14 15 16 14 13 8 7 6 1 8 8 2 4 10 22 29 16 9 9 8 8 8 4 5 11 17 4 6 4 7 6 17 11 5 7 20 34 30 31 34 33 25 16
10 11 13 15 15 13 13 7 8 2 2 5 8 3 4 6 25 35 14 13 9 8 9 12 4 6 12 4 3 7 6 5 8 17 5 12 8 15 30 31 31 32 32 31 26
9 10 11 13 14 11 11 2 11 7 1 2 8 3 12 14 14 34 7 13 8 3 1 7 10 3 6 8 5 8 4 6 7 6 16 12 17 18 28 30 27 31 32 35 34
9 10 11 13 13 9 8 1 3 2 14 10 9 4 13 14 10 36 15 9 10 9 5 6 9 10 10 5 5 8 3 8 7 4 5 14 21 19 24 31 36 34 34 35 39
9 9 11 13 12 7 8 2 2 5 9 8 5 8 12 10 10 38 19 8 11 4 8 5 5 7 10 3 8 4 4 5 9 1 6 3 15 13 19 22 27 31 36 40 46
10 9 10 12 12 9 9 3 4 8 3 3 8 7 9 7 9 26 19 6 7 5 5 5 5 13 7 7 16 4 0 10 7 8 3 6 2 22 19 21 30 35 33 35 35
9 9 9 12 6 11 6 2 7 5 4 4 4 7 13 4 6 20 17 4 5 3 3 2 6 8 13 7 11 4 2 14 9 2 2 7 1 11 19 19 25 37 41 41 43
8 7 9 10 9 7 5 2 5 2 3 2 3 4 9 9 5 13 23 6 3 4 1 3 7 7 8 11 6 7 18 7 3 1 2 8 2 6 18 29 30 34 41 42 41
7 6 6 8 9 6 3 4 6 5 4 2 2 6 3 9 6 12 10 10 5 3 5 2 6 2 5 15 3 15 4 1 2 2 4 6 1 6 12 17 22 31 39 41 44
6 4 4 6 7 5 2 4 4 4 3 0 2 4 3 5 6 10 5 9 7 7 9 8 4 7 8 8 5 16 6 3 5 5 1 6 4 1 9 17 18 24 35 40 42
7 6 3 4 8 3 2 4 2 1 2 0 2 2 3 5 3 7 3 5 6 5 3 5 7 8 10 4 6 6 4 3 0 3 5 7 5 1 12 23 25 27 32 39 44
11 8 4 2 5 4 1 3 5 3 4 6 2 2 1 1 4 4 5 1 2 2 5 5 3 5 3 4 5 7 6 2 1 2 2 4 3 4 18 21 30 33 38 41 45
16 7 1 2 6 2 3 4 2 1 2 1 3 1 1 4 3 5 3 3 3 5 2 2 4 3 5 7 8 4 3 3 3 5 4 3 2 8 18 23 22 27 34 39 43
14 6 3 6 6 1 2 3 2 2 1 1 3 4 3 3 3 2 1 0 1 2 6 3 3 5 2 6 4 6 4 4 1 2 1 4 1 3 6 15 18 25 30 35 41
13 4 7 9 4 2 3 2 3 2 2 1 3 3 3 2 3 2 3 4 1 2 2 3 4 3 3 3 2 1 2 3 2 4 1 1 3 2 2 16 19 24 28 34 37
15 7 9 11 4 2 2 2 2 3 3 3 2 2 1 3 4 1 3 4 4 1 1 4 2 3 7 5 3 3 3 2 2 1 0 2 3 2 13 22 22 22 27 35 38
11 3 4 5 4 5 5 4 4 3 3 4 4 3 3 3 3 4 3 2 3 3 5 2 3 5 5 5 2 4 5 4 2 1 1 4 9 12 16 19 28 28 27 33 33
10 2 6 3 4 3 4 6 5 5 2 5 1 3 5 4 2 3 2 3 3 4 3 3 3 2 4 5 3 4 3 5 2 2 3 3 5 13 13 17 23 26 30 33 34
13 9 7 6 12 7 3 6 8 3 6 4 4 5 4 5 5 7 6 3 3 3 3 4 1 2 3 2 3 4 4 4 2 3 5 5 6 4 25 21 21 24 28 32 35
12 18 12 9 6 4 5 6 8 12 2 1 10 5 4 4 8 13 10 10 7 5 2 3 3 3 4 4 4 4 5 3 3 3 2 2 5 15 17 23 22 20 32 32 35
Wind_Direction
6 8 8 8 8 11 14 18 20 22 21 23 21 11 358 353 329 329 358 345 340 335 332 331 341 351 20 88 121 167 198 259 266 293 293 295 303 300 285 271 280 263 261 277 284
359 3 3 5 5 7 10 12 16 13 12 12 2 3 358 354 352 6 346 338 330 343 358 24 37 11 72 98 215 129 212 244 235 274 289 296 304 296 295 274 272 278 279 280 274
354 357 360 2 0 5 4 5 13 10 4 3 343 351 359 356 63 348 344 336 354 4 25 32 23 34 59 322 216 179 244 279 292 283 297 301 294 313 303 290 293 290 282 282 269
347 353 356 358 359 359 0 1 5 3 7 17 7 3 15 31 48 352 349 4 22 36 35 41 26 27 33 341 356 276 271 281 285 304 316 314 324 330 17 328 319 308 268 271 266
340 348 351 354 2 357 355 1 354 347 353 7 17 40 35 47 9 356 3 17 36 48 44 36 22 1 352 314 318 224 289 304 295 305 316 41 20 342 355 344 348 346 262 245 260
336 341 348 353 356 1 350 1 355 343 327 351 15 51 43 70 8 355 2 10 31 49 46 38 21 352 298 299 249 308 286 282 310 328 345 59 33 23 352 350 2 17 347 250 248
329 336 344 350 353 358 346 347 346 3 6 9 9 43 56 33 6 360 6 5 1 55 52 35 41 30 340 315 324 301 327 331 21 347 338 346 33 16 357 1 7 15 20 37 1
323 334 342 345 351 352 346 339 332 346 106 20 24 71 79 17 7 9 31 38 26 97 64 20 12 349 2 323 5 359 36 350 335 359 3 35 16 9 5 9 12 10 7 2 356
322 332 340 344 348 350 349 350 345 355 214 355 15 85 45 4 5 12 23 32 59 93 83 26 13 22 5 17 5 33 316 318 320 12 45 50 2 354 10 15 16 8 3 358 357
319 329 335 339 344 352 352 19 57 31 310 6 24 98 16 349 2 7 45 41 58 97 292 24 27 35 9 22 357 319 342 306 308 344 54 53 31 7 12 16 13 11 3 358 359
313 323 334 338 343 350 352 319 306 36 64 75 53 50 359 1 5 12 30 53 39 48 18 12 31 4 323 313 256 270 238 290 310 220 83 61 40 11 4 9 13 5 3 358 357
307 322 334 339 344 347 358 335 273 151 95 68 56 27 14 6 360 12 24 59 39 34 338 23 23 325 303 295 327 305 295 331 308 269 329 83 61 20 15 13 6 1 3 360 357
308 319 332 339 336 355 4 12 145 152 88 45 34 13 3 26 38 8 17 39 52 33 4 81 310 321 351 354 3 351 344 337 279 308 232 314 101 9 10 6 9 9 4 1 358
299 314 333 345 348 351 8 52 147 144 76 334 358 14 359 99 60 15 15 47 46 30 337 301 340 349 340 9 1 323 337 315 291 299 352 20 22 24 356 1 8 5 1 356 354
294 312 335 349 340 355 347 165 159 122 20 23 15 6 27 77 328 13 18 68 56 353 15 272 342 339 351 344 336 265 322 290 279 44 29 356 57 5 358 1 0 357 354 354 353
283 307 346 348 354 6 11 145 133 45 262 141 26 356 43 27 29 353 24 48 68 15 359 331 311 312 322 308 267 323 355 310 32 50 40 313 52 11 10 354 340 347 351 352 353
268 290 312 8 359 14 102 147 34 133 36 354 36 36 103 12 24 13 42 29 36 19 9 334 354 332 350 330 333 4 28 350 9 15 300 335 41 261 351 360 347 344 347 350 355
241 250 263 50 359 12 180 51 117 216 182 220 116 94 88 7 38 8 53 28 43 60 76 28 350 3 342 27 305 343 56 105 356 354 308 353 8 17 24 358 354 351 353 355 357
212 224 234 110 38 316 242 70 220 195 140 154 106 119 108 81 125 81 38 88 8 45 96 17 292 319 338 326 0 335 41 325 272 242 292 331 342 139 359 355 356 355 356 356 355
210 223 169 143 87 305 80 240 170 22 96 55 164 310 123 353 69 60 7 299 348 43 129 171 326 347 312 5 19 53 347 39 7 23 351 341 18 328 347 348 349 353 350 349 352
208 149 139 108 88 102 177 213 143 144 99 65 159 116 81 135 87 78 191 112 314 30 66 127 106 292 16 28 333 336 14 16 158 68 20 318 358 253 332 346 339 345 343 346 349
183 112 156 145 90 84 149 163 121 160 120 76 96 102 121 130 97 124 137 161 32 121 44 41 143 282 221 312 274 296 17 68 92 321 49 260 287 186 231 350 343 336 343 346 355
152 129 155 163 141 184 147 110 143 150 184 147 95 63 94 109 92 198 127 135 71 43 95 210 21 4 350 357 12 27 12 39 184 112 236 317 295 349 348 351 349 340 344 348 354
151 134 117 158 157 142 151 178 169 154 142 115 125 105 106 85 23 164 135 120 103 20 56 121 111 148 185 213 162 329 333 7 103 108 263 236 301 321 342 343 340 340 345 349 350
156 156 155 159 217 149 124 150 143 172 140 164 93 201 152 115 33 156 132 108 76 357 65 101 128 150 259 250 226 249 243 335 78 166 188 261 275 300 329 330 326 330 339 348 351
156 144 135 114 130 108 200 216 164 149 142 214 185 148 141 141 199 188 138 172 174 42 65 331 163 103 315 205 13 269 223 314 227 252 267 271 289 222 326 325 333 337 342 345 347
174 152 151 146 138 142 205 175 178 134 143 286 158 120 123 138 116 109 99 115 119 137 132 78 113 70 271 351 347 347 225 212 277 249 202 308 262 326 323 327 329 330 346 342 345
Height
1542 1540 1537 1535 1533 1530 1528 1526 1525 1524 1523 1523 1523 1522 1521 1520 1518 1518 1515 1516 1511 1504 1499 1495 1495 1496 1496 1497 1497 1497 1499 1498 1494 1489 1481 1477 1478 1473 1473 1469 1467 1461 1458 1456 1454
1543 1541 1538 1536 1533 1530 1528 1527 1525 1525 1524 1523 1523 1522 1521 1519 1518 1518 1518 1514 1509 1502 1499 1496 1495 1495 1496 1497 1497 1498 1500 1494 1490 1486 1481 1478 1476 1470 1468 1463 1459 1457 1452 1451 1451
1543 1541 1539 1536 1534 1531 1529 1527 1526 1525 1524 1523 1523 1522 1521 1518 1518 1518 1514 1508 1504 1503 1501 1499 1497 1496 1497 1497 1498 1498 1495 1490 1486 1483 1479 1477 1471 1467 1464 1458 1459 1455 1447 1448 1447
1542 1540 1538 1536 1534 1531 1529 1527 1526 1525 1524 1523 1522 1522 1520 1518 1526 1518 1512 1507 1505 1505 1503 1501 1499 1498 1499 1499 1498 1498 1492 1491 1483 1479 1477 1477 1471 1469 1467 1463 1454 1443 1442 1444 1443
1542 1540 1538 1536 1533 1532 1530 1527 1527 1525 1524 1523 1521 1522 1520 1520 1523 1519 1513 1509 1507 1505 1504 1502 1500 1499 1499 1498 1497 1496 1492 1486 1481 1478 1474 1477 1474 1471 1468 1457 1448 1436 1435 1437 1440
1541 1539 1537 1535 1533 1530 1529 1527 1526 1525 1524 1523 1522 1522 1521 1522 1523 1518 1512 1511 1508 1507 1506 1504 1503 1500 1499 1499 1499 1495 1490 1484 1479 1476 1471 1477 1477 1473 1471 1461 1449 1439 1436 1438 1440
1539 1538 1537 1534 1532 1529 1529 1525 1525 1524 1524 1523 1522 1522 1522 1526 1523 1518 1512 1509 1509 1507 1507 1506 1505 1503 1499 1496 1496 1493 1490 1482 1480 1477 1471 1470 1474 1482 1477 1465 1453 1444 1440 1441 1439
1538 1537 1536 1534 1531 1529 1527 1525 1524 1524 1524 1523 1522 1522 1522 1523 1523 1516 1513 1510 1508 1507 1508 1507 1505 1504 1501 1497 1495 1496 1496 1494 1482 1480 1474 1467 1477 1484 1478 1468 1457 1449 1443 1441 1438
1536 1535 1534 1533 1530 1528 1527 1525 1523 1522 1524 1523 1523 1522 1525 1523 1520 1515 1513 1511 1510 1510 1509 1508 1506 1506 1505 1503 1498 1502 1506 1504 1491 1486 1480 1479 1485 1487 1481 1471 1464 1457 1451 1445 1437
1535 1534 1533 1531 1529 1526 1526 1525 1524 1524 1524 1524 1524 1527 1526 1526 1523 1518 1513 1512 1511 1511 1511 1509 1508 1511 1509 1508 1513 1505 1508 1505 1498 1492 1488 1486 1490 1487 1481 1476 1471 1464 1456 1448 1437
1533 1532 1531 1530 1528 1525 1525 1524 1527 1527 1526 1528 1532 1529 1529 1527 1525 1519 1513 1512 1512 1512 1517 1513 1516 1519 1518 1513 1513 1510 1509 1505 1494 1490 1490 1491 1488 1489 1482 1475 1466 1466 1460 1452 1441
1531 1530 1530 1529 1527 1525 1523 1523 1523 1527 1529 1529 1530 1530 1528 1526 1525 1520 1515 1514 1518 1523 1519 1518 1520 1519 1513 1509 1509 1506 1504 1500 1490 1489 1489 1488 1493 1494 1487 1484 1479 1473 1464 1455 1443
1531 1529 1528 1527 1526 1524 1522 1522 1521 1524 1528 1530 1529 1528 1529 1527 1530 1527 1522 1522 1524 1527 1528 1523 1522 1516 1513 1507 1505 1502 1504 1504 1503 1491 1487 1483 1486 1489 1489 1488 1484 1477 1473 1467 1461
1528 1528 1526 1526 1526 1523 1523 1523 1522 1524 1539 1533 1530 1531 1531 1526 1531 1530 1527 1526 1526 1530 1529 1526 1522 1520 1513 1508 1509 1506 1501 1503 1496 1488 1486 1486 1483 1491 1491 1488 1483 1477 1473 1468 1458
1526 1527 1525 1525 1525 1525 1526 1523 1524 1526 1547 1535 1532 1532 1532 1530 1536 1535 1531 1526 1530 1531 1531 1529 1526 1524 1516 1514 1511 1503 1500 1498 1492 1488 1491 1491 1489 1496 1494 1478 1482 1485 1479 1471 1465
1525 1525 1524 1524 1524 1525 1524 1525 1524 1538 1541 1531 1532 1533 1533 1534 1536 1535 1534 1529 1531 1532 1531 1532 1527 1527 1524 1512 1508 1503 1500 1496 1494 1496 1506 1505 1504 1511 1508 1514 1503 1497 1486 1478 1466
1523 1523 1523 1522 1524 1525 1526 1526 1538 1540 1532 1532 1534 1536 1540 1541 1540 1543 1547 1547 1550 1551 1561 1542 1531 1528 1527 1518 1508 1506 1509 1513 1505 1514 1504 1504 1503 1525 1522 1517 1508 1498 1489 1479 1471
1520 1521 1520 1519 1523 1525 1527 1528 1539 1526 1530 1536 1536 1537 1540 1544 1546 1549 1550 1556 1554 1559 1572 1563 1541 1539 1532 1531 1529 1522 1527 1542 1529 1520 1511 1501 1514 1517 1521 1517 1511 1504 1495 1483 1474
1518 1517 1517 1516 1520 1526 1529 1540 1527 1525 1529 1531 1534 1534 1541 1543 1547 1551 1560 1564 1559 1557 1567 1575 1547 1541 1537 1534 1532 1526 1536 1538 1542 1537 1521 1518 1517 1519 1516 1514 1509 1501 1492 1487 1478
1513 1514 1516 1516 1518 1526 1528 1524 1530 1532 1533 1532 1527 1539 1534 1546 1548 1555 1567 1562 1562 1558 1557 1564 1567 1545 1540 1535 1536 1538 1537 1540 1547 1545 1539 1519 1529 1526 1523 1516 1511 1505 1499 1493 1488
1508 1511 1516 1515 1518 1524 1530 1530 1531 1532 1532 1534 1536 1541 1545 1552 1552 1561 1564 1562 1560 1560 1558 1564 1574 1552 1544 1550 1556 1549 1552 1548 1549 1548 1546 1534 1526 1537 1536 1528 1519 1515 1509 1501 1492
1504 1511 1515 1514 1521 1527 1529 1530 1530 1533 1532 1534 1537 1537 1543 1547 1555 1561 1558 1558 1558 1559 1561 1561 1573 1575 1558 1553 1554 1556 1554 1555 1551 1550 1550 1549 1528 1534 1535 1533 1526 1519 1512 1505 1498
1498 1507 1512 1513 1520 1527 1527 1528 1528 1531 1533 1534 1537 1539 1543 1546 1557 1554 1554 1558 1558 1560 1560 1561 1578 1582 1564 1560 1553 1558 1556 1556 1557 1562 1561 1551 1524 1531 1532 1528 1527 1520 1515 1506 1497
1496 1506 1510 1511 1514 1517 1522 1525 1529 1529 1532 1532 1537 1539 1543 1547 1551 1555 1554 1558 1558 1559 1558 1561 1572 1572 1572 1569 1571 1572 1564 1560 1559 1555 1568 1560 1548 1530 1531 1526 1521 1518 1519 1513 1504
1488 1498 1498 1511 1514 1515 1515 1521 1525 1528 1529 1532 1536 1536 1538 1552 1558 1554 1553 1556 1557 1558 1558 1563 1573 1575 1564 1560 1560 1558 1564 1560 1567 1561 1557 1551 1559 1542 1538 1532 1525 1519 1510 1506 1503
1482 1489 1497 1504 1508 1514 1517 1521 1517 1524 1526 1531 1532 1534 1538 1540 1543 1547 1551 1556 1555 1558 1563 1564 1572 1568 1571 1555 1560 1556 1553 1558 1558 1555 1557 1554 1546 1541 1537 1533 1525 1519 1513 1507 1500
1475 1479 1485 1502 1508 1511 1510 1511 1513 1517 1526 1528 1529 1532 1536 1538 1542 1542 1545 1549 1550 1558 1566 1570 1577 1578 1577 1565 1572 1564 1564 1560 1558 1561 1558 1551 1543 1540 1533 1530 1526 1521 1514 1506 1500